When you browse on this site, cookies collect data to enhance your experience and personalize the content and advertising you see.
Visit our Privacy Policy to learn more. By continuing to use the site, you agree to this use of cookies and data.
  • In Hungary
  • List of Countries
  • For 7 days
  • Water Temperature
  • Satellite Maps
  • Weather Map
  • News
  • Weather Widgets
  • user-avatar
    Login

    Hourly Weather Raszowa

    Today, 23 May, Thursday

    Time Temperature Precipitation Wind Pressure Humidity
    00:00 +10°C° 0.1 mm 6 mps 749 mmHg 95%
    01:00 +10°C° 0 mm 5 mps 749 mmHg 94%
    02:00 +9°C° 0.1 mm 5 mps 749 mmHg 94%
    03:00 +9°C° 0.1 mm 6 mps 749 mmHg 94%
    04:00 +9°C° 0.1 mm 6 mps 749 mmHg 94%
    05:00 +9°C° 0.1 mm 6 mps 750 mmHg 94%
    06:00 +9°C° 0.1 mm 5 mps 750 mmHg 94%
    07:00 +9°C° 0.1 mm 5 mps 750 mmHg 94%
    08:00 +9°C° 0.1 mm 5 mps 750 mmHg 93%
    09:00 +9°C° 0.1 mm 6 mps 750 mmHg 92%
    10:00 +9°C° 0.1 mm 6 mps 751 mmHg 91%
    11:00 +10°C° 0 mm 5 mps 751 mmHg 86%
    12:00 +12°C° 0 mm 5 mps 751 mmHg 81%
    13:00 +13°C° 0 mm 4 mps 751 mmHg 76%
    14:00 +14°C° 0 mm 4 mps 751 mmHg 73%
    15:00 +16°C° 0 mm 3 mps 751 mmHg 69%
    16:00 +16°C° 0 mm 3 mps 750 mmHg 65%
    17:00 +16°C° 0 mm 2 mps 750 mmHg 68%
    18:00 +15°C° 0 mm 1 mps 750 mmHg 71%
    19:00 +15°C° 0 mm 1 mps 750 mmHg 75%
    20:00 +13°C° 0 mm 1 mps 751 mmHg 77%
    21:00 +12°C° 0 mm 1 mps 751 mmHg 80%
    22:00 +11°C° 0 mm 1 mps 751 mmHg 83%
    23:00 +10°C° 0 mm 1 mps 751 mmHg 84%

    Tomorrow, 24 May, Friday

    Time Temperature Precipitation Wind Pressure Humidity
    00:00 +10°C° 0 mm 1 mps 751 mmHg 86%
    01:00 +9°C° 0 mm 1 mps 751 mmHg 87%
    02:00 +9°C° 0 mm 1 mps 751 mmHg 87%
    03:00 +8°C° 0 mm 1 mps 751 mmHg 86%
    04:00 +8°C° 0 mm 1 mps 751 mmHg 86%
    05:00 +10°C° 0 mm 1 mps 751 mmHg 79%
    06:00 +11°C° 0 mm 1 mps 751 mmHg 73%
    07:00 +13°C° 0 mm 1 mps 751 mmHg 67%
    08:00 +15°C° 0 mm 1 mps 751 mmHg 60%
    09:00 +16°C° 0 mm 1 mps 750 mmHg 54%
    10:00 +19°C° 0 mm 1 mps 750 mmHg 47%
    11:00 +20°C° 0 mm 1 mps 750 mmHg 45%
    12:00 +21°C° 0 mm 1 mps 750 mmHg 42%
    13:00 +20°C° 0 mm 0 mps 749 mmHg 40%
    14:00 +20°C° 0 mm 0 mps 749 mmHg 40%
    15:00 +20°C° 0 mm 0 mps 749 mmHg 40%
    16:00 +20°C° 0 mm 0 mps 748 mmHg 40%
    17:00 +21°C° 0 mm 1 mps 748 mmHg 47%
    18:00 +19°C° 0 mm 1 mps 748 mmHg 54%
    19:00 +17°C° 0 mm 2 mps 747 mmHg 61%
    20:00 +16°C° 0 mm 2 mps 748 mmHg 62%
    21:00 +14°C° 0 mm 2 mps 748 mmHg 63%
    22:00 +12°C° 0 mm 3 mps 748 mmHg 65%
    23:00 +12°C° 0 mm 3 mps 748 mmHg 67%

    Day after tomorrow, 25 May, Saturday

    Time Temperature Precipitation Wind Pressure Humidity
    00:00 +13°C° 0 mm 2 mps 748 mmHg 69%
    01:00 +13°C° 0 mm 2 mps 748 mmHg 71%
    02:00 +12°C° 0 mm 2 mps 748 mmHg 76%
    03:00 +12°C° 0 mm 2 mps 748 mmHg 81%
    04:00 +11°C° 0 mm 3 mps 747 mmHg 86%
    05:00 +13°C° 0 mm 3 mps 748 mmHg 84%
    06:00 +14°C° 0 mm 3 mps 748 mmHg 82%
    07:00 +15°C° 0 mm 4 mps 748 mmHg 80%
    08:00 +17°C° 0.1 mm 4 mps 748 mmHg 76%
    09:00 +18°C° 0.1 mm 4 mps 748 mmHg 72%
    10:00 +19°C° 0.1 mm 4 mps 748 mmHg 68%
    11:00 +20°C° 0.1 mm 4 mps 748 mmHg 62%
    12:00 +21°C° 0.1 mm 5 mps 748 mmHg 56%
    13:00 +21°C° 0.1 mm 5 mps 748 mmHg 51%
    14:00 +21°C° 0 mm 4 mps 748 mmHg 50%
    15:00 +21°C° 0 mm 4 mps 748 mmHg 50%
    16:00 +21°C° 0 mm 4 mps 747 mmHg 49%
    17:00 +20°C° 0 mm 3 mps 747 mmHg 56%
    18:00 +19°C° 0 mm 3 mps 747 mmHg 62%
    19:00 +17°C° 0 mm 2 mps 747 mmHg 69%
    20:00 +16°C° 0 mm 2 mps 748 mmHg 74%
    21:00 +13°C° 0 mm 3 mps 748 mmHg 78%
    22:00 +12°C° 0 mm 3 mps 748 mmHg 82%
    23:00 +11°C° 0 mm 3 mps 748 mmHg 85%

    26 May, Sunday

    Time Temperature Precipitation Wind Pressure Humidity
    00:00 +10°C° 0 mm 3 mps 748 mmHg 88%
    01:00 +10°C° 0 mm 3 mps 748 mmHg 91%
    02:00 +9°C° 0 mm 3 mps 748 mmHg 93%
    03:00 +9°C° 0 mm 3 mps 748 mmHg 95%
    04:00 +8°C° 0 mm 3 mps 748 mmHg 97%
    05:00 +9°C° 0 mm 3 mps 748 mmHg 90%
    06:00 +11°C° 0 mm 3 mps 748 mmHg 83%
    07:00 +12°C° 0 mm 4 mps 748 mmHg 76%
    08:00 +14°C° 0 mm 4 mps 748 mmHg 70%
    09:00 +15°C° 0 mm 4 mps 747 mmHg 64%
    10:00 +18°C° 0 mm 4 mps 747 mmHg 57%
    11:00 +17°C° 0 mm 5 mps 747 mmHg 55%
    12:00 +19°C° 0 mm 5 mps 747 mmHg 54%
    13:00 +20°C° 0 mm 6 mps 746 mmHg 52%
    14:00 +19°C° 0 mm 6 mps 746 mmHg 57%
    15:00 +19°C° 0 mm 5 mps 746 mmHg 61%
    16:00 +17°C° 0 mm 5 mps 746 mmHg 66%
    17:00 +17°C° 0 mm 4 mps 746 mmHg 69%
    18:00 +17°C° 0 mm 3 mps 746 mmHg 71%
    19:00 +16°C° 0 mm 2 mps 746 mmHg 74%
    20:00 +15°C° 0 mm 2 mps 746 mmHg 78%
    21:00 +14°C° 0 mm 2 mps 747 mmHg 81%
    22:00 +13°C° 0 mm 2 mps 747 mmHg 84%
    23:00 +12°C° 0 mm 2 mps 747 mmHg 84%

    27 May, Monday

    Time Temperature Precipitation Wind Pressure Humidity
    00:00 +12°C° 0 mm 2 mps 747 mmHg 84%
    01:00 +12°C° 0 mm 2 mps 747 mmHg 84%
    02:00 +12°C° 0 mm 2 mps 746 mmHg 83%
    03:00 +12°C° 0 mm 2 mps 746 mmHg 83%
    04:00 +12°C° 0 mm 2 mps 746 mmHg 82%
    05:00 +14°C° 0 mm 2 mps 745 mmHg 78%
    06:00 +16°C° 0 mm 2 mps 745 mmHg 74%
    07:00 +17°C° 0 mm 2 mps 745 mmHg 70%
    08:00 +19°C° 0 mm 3 mps 745 mmHg 65%
    09:00 +21°C° 0 mm 3 mps 744 mmHg 60%
    10:00 +24°C° 0 mm 3 mps 744 mmHg 54%
    11:00 +24°C° 0 mm 3 mps 744 mmHg 53%
    12:00 +25°C° 0 mm 3 mps 743 mmHg 52%
    13:00 +25°C° 0 mm 3 mps 743 mmHg 51%
    14:00 +25°C° 0 mm 3 mps 742 mmHg 52%
    15:00 +25°C° 0 mm 3 mps 742 mmHg 53%
    16:00 +26°C° 0 mm 3 mps 742 mmHg 54%
    17:00 +24°C° 0.4 mm 3 mps 741 mmHg 63%
    18:00 +21°C° 0.4 mm 2 mps 741 mmHg 72%
    19:00 +20°C° 0.4 mm 2 mps 741 mmHg 80%
    20:00 +18°C° 0 mm 2 mps 741 mmHg 83%
    21:00 +18°C° 0 mm 1 mps 741 mmHg 86%
    22:00 +16°C° 0 mm 1 mps 741 mmHg 88%
    23:00 +16°C° 0.1 mm 1 mps 740 mmHg 89%

    28 May, Tuesday

    Time Temperature Precipitation Wind Pressure Humidity
    00:00 +15°C° 0.1 mm 1 mps 740 mmHg 90%
    01:00 +15°C° 0.1 mm 1 mps 740 mmHg 91%
    02:00 +15°C° 0.4 mm 1 mps 740 mmHg 92%
    03:00 +15°C° 0.4 mm 1 mps 740 mmHg 93%
    04:00 +15°C° 0.4 mm 1 mps 739 mmHg 95%
    05:00 +15°C° 0.6 mm 1 mps 739 mmHg 94%
    06:00 +16°C° 0.6 mm 1 mps 739 mmHg 94%
    07:00 +16°C° 0.6 mm 2 mps 739 mmHg 94%
    08:00 +17°C° 1 mm 2 mps 739 mmHg 93%
    09:00 +17°C° 1 mm 2 mps 739 mmHg 92%
    10:00 +18°C° 1 mm 1 mps 739 mmHg 91%
    11:00 +19°C° 0.6 mm 1 mps 739 mmHg 87%
    12:00 +20°C° 0.6 mm 1 mps 739 mmHg 83%
    13:00 +19°C° 0.6 mm 0 mps 739 mmHg 79%
    14:00 +22°C° 0.9 mm 1 mps 739 mmHg 77%
    15:00 +22°C° 0.9 mm 1 mps 739 mmHg 75%
    16:00 +23°C° 0.9 mm 1 mps 739 mmHg 73%
    17:00 +22°C° 1.3 mm 1 mps 739 mmHg 77%
    18:00 +21°C° 1.3 mm 1 mps 739 mmHg 82%
    19:00 +20°C° 1.3 mm 1 mps 739 mmHg 87%
    20:00 +19°C° 0.6 mm 1 mps 739 mmHg 89%
    21:00 +17°C° 0.6 mm 2 mps 739 mmHg 91%
    22:00 +16°C° 0.6 mm 2 mps 740 mmHg 94%
    23:00 +16°C° 0.8 mm 3 mps 740 mmHg 95%
    Show more